NNSS 19 (TRANSIT 19)

Last updated on Sat Sep 05 2026 00:03:34 GMT+0000 (Coordinated Universal Time)

1 04507U 70067A 26247.44466292 .00000097 00000+0 12458-3 0 9992 2 04507 90.0163 234.8615 0169762 242.6956 115.6822 13.51376424758103
UTC large
Height (km)
Speed (km/s)
/
Latitude / Longitude
Inclination (degrees)
Orbital Period (minutes)
Azimuth
Elevation
Range (km)
Doppler Factor

Next 0 passes for location: London (51.5072 / 0.1276)

No passes found over London.
NNSS 19 (TRANSIT 19)